[[{"header":{"parameterUnit":"m.s-1","parameterCategory":2,"la1":30.2991,"la2":30.254,"lo1":-89.0895,"lo2":-89.0444,"dy":0.0017,"dx":0.0017,"nx":28,"ny":28,"refTime":"2025-11-06T03:00:00:Z","depth":"0","parameterNumber":2,"parameterNumberName":"U-component_of_CURRENTS"},"data":[0,0,0,0,0,0,0,0,0,0,0,0,0,0,0,0,0,0,0,0,0,0,0,0,0,0,0,0,0,0,0,0,0,0,0,0,0,0,0,0,0,0,0,0,0,0,0,0,0,0,0,0,0,0,0,0,0,0,0.4155,0.4156,0,0.4188,0.4189,0.4189,0.4223,0.4224,0.4225,0.4226,0.4225,0.4224,0.4223,0,0,0,0,0,0,0,0,0,0,0,0,0,0.4127,0.4127,0.4155,0.4156,0.4156,0.4188,0.4189,0.4189,0.4223,0.4224,0.4225,0.4226,0.4225,0.4224,0.4223,0,0,0,0,0,0,0,0,0,0,0,0,0,0.4145,0.4127,0.4155,0.418,0.4183,0.4188,0.4189,0.4189,0.4223,0.4224,0.4225,0.4226,0.4225,0.4224,0.4223,0.4193,0,0,0.422,0.4219,0,0,0,0,0,0,0,0,0.4143,0.4145,0.4175,0.4178,0.4181,0.4206,0.4179,0.419,0.4223,0.4204,0.4226,0.4227,0.4217,0.4216,0.4216,0.4193,0.4193,0.422,0.4219,0.4219,0.4218,0,0,0,0,0,0,0,0.4142,0.4144,0.4165,0.4176,0.418,0.4192,0.4195,0.4181,0.42,0.4206,0.4209,0.4218,0.4218,0.4217,0.4216,0.4193,0.422,0.4219,0.4218,0.4218,0.4239,0.424,0,0,0,0,0,0,0.4143,0.4143,0.4164,0.4166,0.4169,0.4192,0.4195,0.4194,0.4201,0.4205,0.4217,0.4219,0.4218,0.4217,0.4216,0.4267,0.4219,0.4218,0.4217,0.4238,0.4239,0.424,0,0,0,0,0,0,0.4142,0.4144,0.4162,0.4159,0.4162,0.4191,0.4189,0.4194,0.4201,0.4211,0.4213,0.422,0.4219,0.4218,0.4223,0.4264,0.4217,0.4216,0.4236,0.4238,0.424,0.4314,0,0,0,0,0,0,0.4141,0.4143,0.4137,0.4158,0.4163,0.4177,0.4189,0.4194,0.4206,0.4209,0.4214,0.4215,0.422,0.4225,0.4222,0.4262,0.4215,0.4235,0.4237,0.4239,0.431,0.4318,0.4325,0,0,0,0,0,0.414,0.412,0.4136,0.4139,0.4155,0.4178,0.4181,0.4204,0.4205,0.4212,0.422,0.4215,0.4239,0.4224,0.4221,0.4261,0.4233,0.4236,0.4239,0.4306,0.4316,0.4325,0,0,0,0,0,0,0.4085,0.4123,0.4141,0.4129,0.4162,0.4186,0.4185,0.42,0.421,0.4213,0.4215,0.4217,0.4248,0.4231,0.4216,0.4275,0.4241,0.4243,0.4293,0.4302,0.431,0.4341,0.4214,0,0,0,0,0,0.4076,0.408,0.4122,0.4111,0.4128,0.4157,0.4165,0.4189,0.4204,0.4209,0.4216,0.4227,0.4253,0.4258,0.427,0.428,0.4301,0.4308,0.4316,0.4322,0.4346,0.4422,0.4439,0.425,0.425,0.425,0,0,0.4048,0.4071,0.407,0.4103,0.4124,0.4162,0.4164,0.4184,0.4223,0.4205,0.4239,0.4249,0.4262,0.4299,0.431,0.429,0.4382,0.4326,0.4331,0.4352,0.4427,0.4446,0.4462,0.4251,0.4251,0.4251,0,0,0.4019,0.4022,0.4036,0.4072,0.4121,0.4149,0.4158,0.4196,0.4221,0.425,0.4268,0.4305,0.4309,0.4354,0.4371,0.4418,0.4424,0.4414,0.4475,0.4548,0.4565,0.458,0.4614,0.4632,0.4414,0.4415,0.4415,0,0.3991,0.4017,0.404,0.408,0.4114,0.4147,0.4188,0.4217,0.4255,0.4289,0.4272,0.4346,0.435,0.4433,0.4461,0.4441,0.4466,0.444,0.4561,0.4577,0.4591,0.4622,0.4641,0.4419,0.4418,0.4418,0.4417,0,0.3997,0.4026,0.4032,0.4105,0.4141,0.4172,0.4238,0.4273,0.4299,0.4343,0.442,0.4436,0.4488,0.4498,0.4494,0.4605,0.4583,0.4566,0.4543,0.4615,0.4642,0.4661,0.4424,0.4423,0.4422,0.4421,0,0,0.3926,0.4021,0.4028,0.4071,0.4163,0.4186,0.4266,0.4352,0.4411,0.4453,0.4536,0.4592,0.4611,0.4632,0.464,0.4703,0.4817,0.4681,0.4683,0.4724,0.4961,0.486,0.4869,0.4825,0.4829,0.4832,0.4933,0,0.3934,0.4002,0.4058,0.4127,0.4172,0.4246,0.431,0.4395,0.4468,0.4551,0.4611,0.468,0.4659,0.469,0.4757,0.4812,0.4872,0.479,0.4878,0.488,0.479,0.489,0.4731,0.4801,0.4951,0.4954,0.4956,0,0.3944,0.3989,0.4058,0.4154,0.4178,0.4224,0.4348,0.4416,0.4559,0.4622,0.4725,0.4767,0.4882,0.4839,0.4985,0.4934,0.4961,0.499,0.4994,0.4892,0.4815,0.4756,0.4828,0.4706,0.4984,0.4982,0.498,0,0.3897,0.3992,0.404,0.4075,0.4187,0.4231,0.4292,0.4433,0.4517,0.4679,0.4755,0.4885,0.4948,0.5031,0.5085,0.5051,0.5229,0.5182,0.5115,0.5106,0.4986,0.4959,0.496,0.5292,0.5292,0.5291,0.5291,0,0.3895,0.3932,0.4013,0.404,0.4099,0.4189,0.4283,0.4382,0.454,0.4643,0.4775,0.488,0.5004,0.5107,0.5142,0.5191,0.5277,0.5159,0.5146,0.5,0.4976,0.4872,0.4814,0.5295,0.5294,0.5294,0.5293,0,0.3855,0.3908,0.3962,0.4054,0.4083,0.4124,0.4266,0.4337,0.4495,0.4643,0.4697,0.491,0.5043,0.5138,0.5278,0.5246,0.5167,0.5295,0.5096,0.5057,0.4835,0.4786,0.4641,0.4499,0.524,0.5238,0.5237,0,0.3846,0.3869,0.3949,0.3969,0.401,0.4085,0.4138,0.4303,0.4395,0.4649,0.4708,0.49,0.5024,0.5193,0.5194,0.5244,0.5111,0.5092,0.4997,0.4831,0.4769,0.4599,0.4477,0.4864,0.4859,0.4856,0.4853,0,0.3828,0.3847,0.3881,0.3927,0.3969,0.4026,0.4115,0.4187,0.4376,0.4508,0.4702,0.4832,0.4992,0.4993,0.5039,0.5049,0.4848,0.5017,0.4922,0.4548,0.429,0.4143,0.4767,0.4822,0.4825,0.4827,0.4829,0.483,0.3799,0.3808,0.3845,0.3878,0.3917,0.395,0.3957,0.4072,0.4198,0.4333,0.455,0.4632,0.4764,0.4822,0.4796,0.4635,0.4614,0.4508,0.4487,0.4347,0.4129,0.466,0.4645,0.4647,0.4649,0.465,0.4652,0,0.3758,0.377,0.3796,0.3813,0.38,0.3858,0.3919,0.3896,0.3967,0.411,0.4237,0.4302,0.433,0.4387,0.4337,0.4155,0.3976,0.4036,0.3788,0.3713,0.4273,0.4175,0.3962,0.3962,0.3962,0.3962,0.3962,0.3962,0.3737,0.3728,0.3732,0.3688,0.3687,0.3616,0.3612,0.3609,0.3657,0.3665,0.3657,0.3744,0.3982,0.4104,0.396,0.3841,0.3529,0.3365,0.3339,0.3776,0.3819,0.3859,0.3753,0.3456,0.3455,0.2641,0.2635,0.2631]},{"header":{"parameterUnit":"m.s-1","parameterCategory":2,"la1":30.2991,"la2":30.254,"lo1":-89.0895,"lo2":-89.0444,"dy":0.0017,"dx":0.0017,"nx":28,"ny":28,"refTime":"2025-11-06T03:00:00:Z","depth":"0","parameterNumber":3,"parameterNumberName":"V-component_of_CURRENTS"},"data":[0,0,0,0,0,0,0,0,0,0,0,0,0,0,0,0,0,0,0,0,0,0,0,0,0,0,0,0,0,0,0,0,0,0,0,0,0,0,0,0,0,0,0,0,0,0,0,0,0,0,0,0,0,0,0,0,0,0,-0.015,-0.0151,0,-0.0223,-0.0224,-0.0225,-0.0301,-0.0301,-0.0302,-0.0303,-0.041,-0.0412,-0.0414,0,0,0,0,0,0,0,0,0,0,0,0,0,-0.0106,-0.0107,-0.015,-0.0151,-0.0151,-0.0222,-0.0224,-0.0225,-0.03,-0.0301,-0.0302,-0.0303,-0.0409,-0.0412,-0.0414,0,0,0,0,0,0,0,0,0,0,0,0,0,-0.0149,-0.0107,-0.015,-0.0196,-0.02,-0.0222,-0.0224,-0.0225,-0.03,-0.0302,-0.0303,-0.0304,-0.0409,-0.0412,-0.0415,-0.0409,0,0,-0.0424,-0.0426,0,0,0,0,0,0,0,0,-0.0147,-0.0151,-0.0188,-0.0193,-0.0198,-0.0252,-0.0247,-0.0288,-0.03,-0.0265,-0.0303,-0.0304,-0.0358,-0.0365,-0.0379,-0.0414,-0.0419,-0.0425,-0.0427,-0.0428,-0.0429,0,0,0,0,0,0,0,-0.0143,-0.0148,-0.0181,-0.0189,-0.0195,-0.0223,-0.023,-0.0256,-0.0306,-0.0268,-0.0273,-0.0277,-0.0361,-0.0376,-0.0382,-0.0421,-0.0425,-0.0427,-0.0429,-0.043,-0.049,-0.049,0,0,0,0,0,0,-0.0126,-0.0145,-0.0179,-0.0183,-0.0172,-0.0222,-0.0231,-0.0235,-0.0305,-0.0316,-0.0276,-0.028,-0.037,-0.0379,-0.0386,-0.0388,-0.0428,-0.0431,-0.0433,-0.0491,-0.049,-0.049,0,0,0,0,0,0,-0.0125,-0.0129,-0.0176,-0.0164,-0.0172,-0.0221,-0.0226,-0.0236,-0.025,-0.031,-0.0323,-0.0279,-0.0371,-0.0382,-0.0409,-0.0392,-0.0432,-0.0435,-0.0491,-0.049,-0.049,-0.0388,0,0,0,0,0,0,-0.0124,-0.0128,-0.0122,-0.0163,-0.0172,-0.0181,-0.0225,-0.0236,-0.0249,-0.0256,-0.0317,-0.0329,-0.0373,-0.0403,-0.0412,-0.0398,-0.0438,-0.0491,-0.0491,-0.049,-0.0392,-0.0384,-0.0378,0,0,0,0,0,-0.0122,-0.01,-0.0122,-0.0126,-0.0164,-0.018,-0.0187,-0.0228,-0.0248,-0.0247,-0.0292,-0.0327,-0.0406,-0.0405,-0.0415,-0.0401,-0.0492,-0.0491,-0.049,-0.0395,-0.0386,-0.0378,0,0,0,0,0,0,-0.0075,-0.0106,-0.0131,-0.0121,-0.0147,-0.0192,-0.0188,-0.0217,-0.025,-0.0255,-0.0318,-0.0332,-0.0353,-0.039,-0.0387,-0.042,-0.0456,-0.0458,-0.0381,-0.0373,-0.0366,-0.0331,-0.044,0,0,0,0,0,-0.0061,-0.0058,-0.0096,-0.0088,-0.0096,-0.014,-0.015,-0.0178,-0.0212,-0.0229,-0.0273,-0.032,-0.0357,-0.0374,-0.0414,-0.0421,-0.0438,-0.0423,-0.0415,-0.0409,-0.0389,-0.0405,-0.0396,-0.0488,-0.0488,-0.0488,0,0,-0.004,-0.0057,-0.0055,-0.0078,-0.0101,-0.0098,-0.015,-0.0154,-0.0153,-0.0233,-0.0243,-0.0296,-0.0355,-0.0373,-0.0385,-0.04,-0.039,-0.0408,-0.0402,-0.0385,-0.0403,-0.0394,-0.0386,-0.0487,-0.0487,-0.0487,0,0,0.0009,-0.0011,0.0008,-0.0007,-0.0031,-0.0056,-0.0052,-0.0092,-0.0113,-0.0132,-0.019,-0.0228,-0.0283,-0.0321,-0.0348,-0.0323,-0.0355,-0.0339,-0.0269,-0.0285,-0.0276,-0.027,-0.0265,-0.0258,-0.0332,-0.0332,-0.0331,0,0.0034,0.0049,0.0012,0.0026,0.0026,-0.003,-0.0007,-0.0031,-0.0077,-0.0078,-0.0124,-0.0198,-0.0258,-0.0268,-0.0271,-0.0305,-0.0309,-0.0293,-0.0272,-0.0266,-0.0261,-0.0258,-0.0252,-0.0327,-0.0327,-0.0328,-0.0328,0,0.0093,0.0103,0.0118,0.0113,0.011,0.0122,0.0087,0.0084,0.0048,0.0017,-0.0008,-0.0094,-0.0135,-0.0167,-0.0215,-0.0204,-0.0216,-0.0261,-0.0285,-0.0244,-0.0245,-0.024,-0.032,-0.0321,-0.0323,-0.0324,0,0,0.0152,0.0158,0.0163,0.0182,0.0159,0.0172,0.0181,0.018,0.0209,0.0135,0.0159,0.0062,0.0014,-0.0019,-0.0086,-0.0107,-0.0088,-0.0157,-0.016,-0.0135,-0.0093,-0.0113,-0.0111,-0.0122,-0.0121,-0.012,-0.0103,0,0.0207,0.0263,0.0244,0.03,0.0327,0.0292,0.0309,0.0301,0.0281,0.0289,0.0199,0.0178,0.0072,0.0054,0.0018,-0.0054,-0.0073,-0.0086,-0.0151,-0.0152,-0.0162,-0.0106,-0.0086,-0.0069,-0.0099,-0.0098,-0.0097,0,0.0266,0.03,0.0362,0.0404,0.0414,0.0434,0.0478,0.0491,0.048,0.0463,0.0426,0.0351,0.0304,0.02,0.011,0.0113,0.0022,-0.0045,-0.0046,-0.0095,-0.0164,-0.012,-0.0061,-0.0256,-0.0091,-0.0092,-0.0092,0,0.0334,0.0385,0.0445,0.0456,0.0486,0.0515,0.0536,0.0544,0.0591,0.058,0.0604,0.0519,0.0494,0.0372,0.0212,0.017,0.0127,0.0044,-0.0057,-0.0059,-0.007,-0.0074,-0.0192,-0.0018,-0.0018,-0.0018,-0.0018,0,0.04,0.0449,0.0485,0.0518,0.0609,0.0597,0.0693,0.0701,0.0742,0.0826,0.0699,0.0755,0.0537,0.0469,0.0299,0.016,0.019,-0.0018,-0.005,-0.0034,-0.0036,-0.0232,-0.0363,-0.0018,-0.0018,-0.0018,-0.0018,0,0.0458,0.0474,0.0555,0.0611,0.0639,0.0708,0.0807,0.0884,0.0893,0.1004,0.1004,0.0956,0.0873,0.0653,0.048,0.0292,0.0028,0.0073,0.0116,0.0088,-0.0216,-0.0342,-0.0501,-0.059,-0.003,-0.003,-0.003,0,0.0491,0.0534,0.0634,0.07,0.0728,0.083,0.0907,0.0957,0.1056,0.1152,0.1225,0.1169,0.1186,0.0923,0.0577,0.0291,0.006,0.0088,-0.0016,-0.0204,-0.0369,-0.0473,-0.0544,0.0018,0.0018,0.0018,0.0018,0,0.0559,0.0589,0.0662,0.0797,0.0893,0.1022,0.1139,0.1243,0.1325,0.1444,0.1605,0.1633,0.1362,0.1104,0.066,0.0436,-0.0059,0.008,-0.0126,-0.0341,-0.0449,-0.0557,-0.0017,0.002,0.0019,0.0019,0.0019,0.0019,0.0612,0.068,0.0775,0.0908,0.1031,0.1192,0.1317,0.1478,0.1681,0.1884,0.1904,0.201,0.1559,0.0979,0.0631,-0.0022,-0.0059,-0.023,-0.0362,-0.0444,-0.0556,-0.0003,-0.0009,-0.0009,-0.001,-0.001,-0.001,0,0.0683,0.076,0.0883,0.1044,0.1192,0.1243,0.1462,0.1614,0.1886,0.2108,0.2278,0.214,0.1586,0.0969,0.0084,-0.0374,-0.0559,-0.063,-0.078,-0.0828,-0.033,-0.0355,-0.0423,-0.0422,-0.0422,-0.0422,-0.0422,-0.0422,0.0722,0.0844,0.0906,0.1146,0.1269,0.1481,0.1616,0.1864,0.2068,0.2379,0.2487,0.2525,0.203,0.0468,-0.0569,-0.0796,-0.114,-0.122,-0.1387,-0.1065,-0.1038,-0.1012,-0.1066,-0.128,-0.1282,-0.1813,-0.1818,-0.1822]}],[{"header":{"parameterUnit":"m.s-1","parameterCategory":2,"la1":30.2991,"la2":30.254,"lo1":-89.0895,"lo2":-89.0444,"dy":0.0017,"dx":0.0017,"nx":28,"ny":28,"refTime":"2025-11-06T03:00:00:Z","depth":"2","parameterNumber":2,"parameterNumberName":"U-component_of_CURRENTS"},"data":[0,0,0,0,0,0,0,0,0,0,0,0,0,0,0,0,0,0,0,0,0,0,0,0,0,0,0,0,0,0,0,0,0,0,0,0,0,0,0,0,0,0,0,0,0,0,0,0,0,0,0,0,0,0,0,0,0,0,0.3119,0.3119,0,0.3165,0.3165,0.3166,0.3167,0.3167,0.3166,0.3166,0.318,0.318,0.3181,0,0,0,0,0,0,0,0,0,0,0,0,0,0.3062,0.3063,0.3118,0.3119,0.312,0.3165,0.3165,0.3166,0.3167,0.3167,0.3166,0.3166,0.318,0.318,0.3181,0,0,0,0,0,0,0,0,0,0,0,0,0,0.3092,0.3063,0.3118,0.3129,0.3131,0.3165,0.3165,0.3166,0.3167,0.3167,0.3166,0.3166,0.3179,0.318,0.3181,0.3194,0,0,0.3184,0.3184,0,0,0,0,0,0,0,0,0.309,0.3093,0.3127,0.3128,0.313,0.3163,0.3151,0.3175,0.3167,0.3149,0.3166,0.3166,0.3174,0.3175,0.318,0.3194,0.3195,0.3184,0.3184,0.3185,0.3185,0,0,0,0,0,0,0,0.3088,0.3092,0.3133,0.3128,0.313,0.3143,0.3146,0.3155,0.3159,0.3151,0.3152,0.3163,0.3174,0.3179,0.318,0.3195,0.3184,0.3185,0.3185,0.3186,0.327,0.3272,0,0,0,0,0,0,0.3089,0.309,0.3132,0.3135,0.3113,0.3144,0.3148,0.315,0.316,0.3163,0.3163,0.3163,0.3178,0.3179,0.3181,0.3244,0.3185,0.3186,0.3186,0.3269,0.3271,0.3272,0,0,0,0,0,0,0.3087,0.3092,0.313,0.3117,0.3123,0.3146,0.3148,0.3151,0.317,0.3171,0.3172,0.3181,0.3178,0.3179,0.3204,0.3242,0.3186,0.3187,0.3267,0.3269,0.3272,0.3339,0,0,0,0,0,0,0.3085,0.309,0.3096,0.3117,0.3124,0.3156,0.3149,0.3152,0.3178,0.3179,0.3187,0.3187,0.3177,0.3203,0.3205,0.3243,0.3187,0.3264,0.3268,0.3271,0.3335,0.3344,0.3352,0,0,0,0,0,0.3083,0.3089,0.3096,0.3102,0.3129,0.3157,0.3162,0.3174,0.318,0.3189,0.32,0.3187,0.3225,0.3204,0.3206,0.3246,0.3263,0.3267,0.3271,0.3331,0.3342,0.3352,0,0,0,0,0,0,0.3062,0.3091,0.3098,0.3112,0.3137,0.3159,0.3174,0.3186,0.3203,0.3207,0.3204,0.3205,0.3248,0.3235,0.3213,0.3281,0.3244,0.3249,0.329,0.33,0.3308,0.3317,0.3188,0,0,0,0,0,0.3063,0.3078,0.3106,0.3118,0.3133,0.3158,0.3174,0.3186,0.3205,0.3213,0.3221,0.3235,0.3265,0.3271,0.3289,0.3317,0.3326,0.3345,0.3354,0.3361,0.3371,0.3424,0.3438,0.3285,0.3285,0.3285,0,0,0.306,0.3078,0.3087,0.3117,0.3137,0.3166,0.3166,0.3197,0.3228,0.3212,0.3252,0.3269,0.3282,0.3321,0.3339,0.3314,0.3411,0.3366,0.3372,0.3378,0.343,0.3445,0.3458,0.3288,0.3287,0.3287,0,0,0.3063,0.3078,0.3094,0.3119,0.3158,0.3179,0.3193,0.3226,0.3248,0.3286,0.3298,0.3335,0.3359,0.3384,0.34,0.3464,0.3461,0.3472,0.3513,0.3565,0.3578,0.359,0.3624,0.3638,0.3467,0.3467,0.3467,0,0.3061,0.308,0.3104,0.313,0.3155,0.3188,0.3217,0.3249,0.3287,0.3316,0.3304,0.3386,0.3393,0.3465,0.3488,0.3485,0.3506,0.3473,0.3577,0.3588,0.3599,0.3631,0.3645,0.3471,0.347,0.347,0.347,0,0.3074,0.3097,0.3112,0.3156,0.3188,0.3216,0.3267,0.3306,0.3337,0.3368,0.3446,0.3466,0.3513,0.353,0.3527,0.3617,0.3607,0.3589,0.355,0.3619,0.3647,0.3661,0.3476,0.3475,0.3474,0.3473,0,0,0.3049,0.3109,0.3114,0.3137,0.3203,0.3226,0.3297,0.3363,0.3419,0.346,0.3528,0.3589,0.3609,0.3629,0.3645,0.3688,0.3781,0.3673,0.3674,0.3705,0.3894,0.3834,0.3843,0.3785,0.3788,0.379,0.3884,0,0.3053,0.3093,0.3132,0.318,0.3206,0.3267,0.3328,0.3396,0.3462,0.3534,0.3587,0.3658,0.3647,0.3685,0.3729,0.3782,0.3821,0.3757,0.3824,0.3826,0.3764,0.3859,0.3549,0.3603,0.3897,0.39,0.3901,0,0.305,0.308,0.3122,0.3193,0.3212,0.3254,0.3362,0.3424,0.3542,0.3599,0.3683,0.3727,0.3824,0.3789,0.3911,0.3874,0.389,0.3913,0.3916,0.3847,0.3793,0.3582,0.3617,0.3924,0.3922,0.3921,0.3919,0,0.3006,0.3072,0.3102,0.3125,0.3214,0.3258,0.3319,0.3441,0.3513,0.3655,0.3716,0.3828,0.3895,0.3951,0.4002,0.3971,0.4114,0.407,0.4027,0.4022,0.3765,0.3733,0.4141,0.4141,0.4141,0.414,0.414,0,0.2985,0.3007,0.3084,0.3098,0.3155,0.3233,0.3322,0.3413,0.3549,0.3632,0.3744,0.3829,0.3942,0.4026,0.4047,0.4096,0.4154,0.4062,0.4056,0.378,0.3749,0.4024,0.4009,0.4144,0.4143,0.4142,0.4142,0,0.2927,0.2972,0.301,0.31,0.3133,0.3177,0.3313,0.3377,0.3524,0.3639,0.3689,0.3867,0.3993,0.4076,0.4187,0.4155,0.4203,0.419,0.3856,0.381,0.406,0.4048,0.4165,0.4164,0.4163,0.4162,0.4162,0,0.2897,0.2912,0.2997,0.3018,0.3059,0.314,0.3193,0.3352,0.3425,0.3645,0.3682,0.3867,0.3962,0.4118,0.4117,0.416,0.4213,0.3874,0.3758,0.4087,0.407,0.4059,0.4048,0.3439,0.3432,0.3427,0.3423,0,0.2844,0.2878,0.2906,0.2959,0.3007,0.3058,0.3149,0.3197,0.3373,0.3475,0.362,0.3728,0.3901,0.3832,0.3905,0.3876,0.3849,0.3769,0.4213,0.3489,0.3412,0.3392,0.3403,0.3376,0.338,0.3384,0.3386,0.3388,0.2798,0.2807,0.285,0.2881,0.2929,0.2945,0.2941,0.3036,0.3119,0.3223,0.343,0.3485,0.3581,0.3552,0.3463,0.3392,0.3653,0.3475,0.3487,0.3506,0.3413,0.334,0.3272,0.3276,0.3279,0.3282,0.3285,0,0.2733,0.2746,0.2769,0.2781,0.2766,0.2848,0.2877,0.2834,0.2844,0.3002,0.3107,0.2936,0.293,0.301,0.284,0.2861,0.2784,0.2735,0.2596,0.2648,0.2694,0.2554,0.2187,0.2183,0.218,0.2176,0,0,0.2696,0.2675,0.2673,0.2605,0.262,0.2553,0.2533,0.2496,0.2541,0.2529,0.2554,0.2819,0.2949,0.2526,0.2488,0.2301,0.2443,0.2213,0.3107,0.2997,0.3037,0.3153,0.3003,0,0,0,0,0]},{"header":{"parameterUnit":"m.s-1","parameterCategory":2,"la1":30.2991,"la2":30.254,"lo1":-89.0895,"lo2":-89.0444,"dy":0.0017,"dx":0.0017,"nx":28,"ny":28,"refTime":"2025-11-06T03:00:00:Z","depth":"2","parameterNumber":3,"parameterNumberName":"V-component_of_CURRENTS"},"data":[0,0,0,0,0,0,0,0,0,0,0,0,0,0,0,0,0,0,0,0,0,0,0,0,0,0,0,0,0,0,0,0,0,0,0,0,0,0,0,0,0,0,0,0,0,0,0,0,0,0,0,0,0,0,0,0,0,0,0.0191,0.019,0,0.0122,0.0121,0.012,0.0079,0.0078,0.0078,0.0078,0.0008,0.0006,0.0004,0,0,0,0,0,0,0,0,0,0,0,0,0,0.0226,0.0226,0.0191,0.019,0.0189,0.0122,0.0121,0.012,0.0079,0.0078,0.0078,0.0078,0.0008,0.0006,0.0004,0,0,0,0,0,0,0,0,0,0,0,0,0,0.0189,0.0226,0.0191,0.0161,0.0158,0.0122,0.0121,0.012,0.0079,0.0078,0.0078,0.0078,0.0009,0.0007,0.0004,-0.0009,0,0,-0.0004,-0.0005,0,0,0,0,0,0,0,0,0.0191,0.0187,0.0166,0.0163,0.016,0.011,0.0108,0.0077,0.0079,0.0108,0.0078,0.0078,0.0043,0.0037,0.0023,-0.0012,-0.0015,-0.0004,-0.0006,-0.0007,-0.0008,0,0,0,0,0,0,0,0.0194,0.019,0.0163,0.0166,0.0161,0.0131,0.0126,0.0101,0.0076,0.0105,0.0102,0.0096,0.004,0.0026,0.0021,-0.0016,-0.0004,-0.0007,-0.0008,-0.0009,-0.0059,-0.0058,0,0,0,0,0,0,0.0207,0.0193,0.0165,0.0161,0.0176,0.0131,0.0125,0.0125,0.0076,0.0069,0.0096,0.0095,0.003,0.0024,0.0019,0.0023,-0.0007,-0.001,-0.0011,-0.0059,-0.0059,-0.0058,0,0,0,0,0,0,0.0209,0.0206,0.0168,0.0175,0.0168,0.0131,0.0131,0.0124,0.0113,0.007,0.0062,0.0093,0.003,0.0022,0.0006,0.0019,-0.0011,-0.0013,-0.0059,-0.0059,-0.0058,0.0018,0,0,0,0,0,0,0.021,0.0207,0.021,0.0177,0.0169,0.016,0.0131,0.0123,0.0109,0.0106,0.0065,0.0057,0.0029,0.0011,0.0004,0.0015,-0.0015,-0.006,-0.0059,-0.0059,0.0015,0.0021,0.0026,0,0,0,0,0,0.0212,0.0224,0.0211,0.0207,0.0175,0.0161,0.0154,0.0125,0.011,0.0113,0.0083,0.0059,0.0009,0.0009,0.0001,0.0012,-0.006,-0.0059,-0.0059,0.0013,0.002,0.0026,0,0,0,0,0,0,0.0238,0.0219,0.0205,0.021,0.0191,0.0154,0.0152,0.0131,0.0109,0.0106,0.0064,0.0055,0.0043,0.0016,0.0018,-0.0002,-0.003,-0.0031,0.0027,0.0033,0.0038,0.0064,-0.0017,0,0,0,0,0,0.0246,0.0251,0.0225,0.0228,0.0223,0.0188,0.0177,0.0159,0.0135,0.0124,0.0094,0.0062,0.0038,0.0029,-0.0,-0.0006,-0.0037,-0.0007,-0.0001,0.0004,0.0018,-0.0018,-0.0015,-0.0056,-0.0056,-0.0056,0,0,0.0256,0.0246,0.0248,0.0234,0.0216,0.0222,0.0181,0.0174,0.018,0.0121,0.0118,0.0078,0.0039,0.0029,0.0022,0.0012,-0.0002,0.0005,0.0009,0.0021,-0.0017,-0.0013,-0.001,-0.0056,-0.0056,-0.0056,0,0,0.0287,0.0272,0.029,0.0282,0.0266,0.0247,0.025,0.022,0.0209,0.0197,0.0157,0.013,0.009,0.0069,0.0052,0.0071,0.0025,0.0056,0.011,0.0075,0.0078,0.0081,0.0045,0.0044,0.0064,0.0064,0.0064,0,0.0298,0.032,0.0292,0.0309,0.0313,0.0267,0.0292,0.0273,0.0241,0.024,0.0208,0.0149,0.0111,0.0107,0.0111,0.0085,0.0055,0.0091,0.0084,0.0086,0.0087,0.0049,0.0047,0.0068,0.0067,0.0067,0.0067,0,0.0346,0.0362,0.0373,0.0383,0.0382,0.0395,0.0372,0.0368,0.0341,0.0318,0.0298,0.0236,0.0207,0.0183,0.0152,0.0148,0.012,0.0092,0.0072,0.0096,0.0054,0.0051,0.0073,0.0072,0.0071,0.007,0,0,0.0378,0.0404,0.0408,0.0435,0.0427,0.0437,0.0449,0.0453,0.0472,0.0414,0.0427,0.0364,0.0322,0.03,0.0249,0.0215,0.019,0.0165,0.0162,0.0139,0.0111,0.0085,0.0078,0.0159,0.0159,0.0159,0.0076,0,0.0426,0.0487,0.0481,0.0538,0.0571,0.0544,0.0564,0.0557,0.0537,0.0535,0.0462,0.0446,0.037,0.0356,0.0309,0.0224,0.0184,0.0215,0.0083,0.0079,0.0061,0.0074,0.0099,0.0028,0.0072,0.0072,0.0071,0,0.0478,0.0516,0.0584,0.0634,0.0645,0.0666,0.07,0.0715,0.0694,0.0678,0.064,0.0575,0.052,0.0445,0.0314,0.0336,0.0235,0.0157,0.0151,0.0102,0.0047,0.001,0.0019,0.0065,0.0065,0.0066,0.0066,0,0.0529,0.0589,0.0652,0.0667,0.0708,0.0734,0.0755,0.0757,0.0796,0.0772,0.0782,0.0691,0.0657,0.0518,0.0349,0.0333,0.0195,0.0151,0.003,0.0026,0.001,0.0006,0.0056,0.0056,0.0057,0.0057,0.0057,0,0.0588,0.0638,0.0683,0.0717,0.0801,0.0801,0.0883,0.0886,0.0911,0.0967,0.0863,0.0877,0.0674,0.0564,0.0392,0.0207,0.0226,0.0047,0.0008,0.0036,0.0035,0.0037,0.0036,0.0054,0.0054,0.0055,0.0056,0,0.0638,0.0661,0.0742,0.0802,0.0828,0.089,0.0981,0.1043,0.1043,0.111,0.1107,0.1026,0.0885,0.0666,0.0447,0.0281,0.0094,0.002,0.0066,0.0034,-0.0065,-0.0061,-0.012,-0.0122,-0.0123,-0.0124,-0.0125,0,0.067,0.0715,0.081,0.0868,0.0899,0.0992,0.1064,0.1108,0.1185,0.1208,0.1251,0.1135,0.1079,0.0747,0.0434,0.0132,0.0091,-0.005,-0.008,-0.0049,-0.0081,-0.0076,-0.007,-0.0078,-0.0078,-0.0078,-0.0079,0,0.0736,0.0762,0.083,0.0952,0.1038,0.1156,0.1258,0.1339,0.1393,0.1442,0.1486,0.144,0.1123,0.0828,0.0407,0.0203,-0.0002,-0.0067,-0.0041,-0.0033,-0.0014,-0.0044,-0.004,-0.0082,-0.0081,-0.0081,-0.0081,-0.0081,0.0782,0.0841,0.0926,0.1045,0.1154,0.1295,0.14,0.1512,0.1639,0.1712,0.1666,0.16,0.1249,0.0722,0.0354,-0.0031,-0.0012,-0.0152,-0.0148,-0.0145,-0.0121,-0.0106,-0.0186,-0.0186,-0.0187,-0.0187,-0.0187,0,0.0844,0.0909,0.1016,0.1157,0.1285,0.1338,0.1517,0.1618,0.1769,0.1828,0.1858,0.1522,0.1183,0.0777,0.0201,-0.0138,-0.0157,-0.0242,-0.0196,-0.019,-0.0185,-0.0163,-0.024,-0.0241,-0.0242,-0.0243,0,0,0.0875,0.0982,0.1035,0.1239,0.1346,0.1522,0.163,0.177,0.1855,0.1914,0.1879,0.1803,0.1304,0.0879,0.0413,0.0082,0.0028,0.0022,0.0102,0.0217,0.0226,-0.0097,-0.005,0,0,0,0,0]}],[{"header":{"parameterUnit":"m.s-1","parameterCategory":2,"la1":30.2991,"la2":30.254,"lo1":-89.0895,"lo2":-89.0444,"dy":0.0017,"dx":0.0017,"nx":28,"ny":28,"refTime":"2025-11-06T03:00:00:Z","depth":"4","parameterNumber":2,"parameterNumberName":"U-component_of_CURRENTS"},"data":[0,0,0,0,0,0,0,0,0,0,0,0,0,0,0,0,0,0,0,0,0,0,0,0,0,0,0,0,0,0,0,0,0,0,0,0,0,0,0,0,0,0,0,0,0,0,0,0,0,0,0,0,0,0,0,0,0,0,0.1971,0.1972,0,0.2045,0.2046,0.2047,0.211,0.2111,0.2112,0.2112,0.2188,0.2189,0.2191,0,0,0,0,0,0,0,0,0,0,0,0,0,0.1888,0.1889,0.1971,0.1972,0.1973,0.2045,0.2046,0.2047,0.211,0.2111,0.2112,0.2113,0.2188,0.2189,0.2191,0,0,0,0,0,0,0,0,0,0,0,0,0,0.1937,0.189,0.1971,0.2015,0.202,0.2045,0.2046,0.2047,0.2109,0.2111,0.2112,0.2113,0.2187,0.2189,0.2191,0.2175,0,0,0.2196,0.2197,0,0,0,0,0,0,0,0,0.1934,0.194,0.2007,0.2012,0.2018,0.2072,0.2045,0.2091,0.2109,0.2073,0.2112,0.2114,0.215,0.2155,0.2163,0.2179,0.2182,0.2196,0.2198,0.2198,0.2199,0,0,0,0,0,0,0,0.1931,0.1937,0.1998,0.2009,0.2015,0.2033,0.2041,0.2054,0.2101,0.2076,0.2082,0.2093,0.2152,0.2161,0.2165,0.2183,0.2196,0.2198,0.2199,0.22,0.2313,0.2315,0,0,0,0,0,0,0.1925,0.1934,0.1996,0.2001,0.1981,0.2033,0.2042,0.2051,0.2101,0.2111,0.2092,0.2096,0.2157,0.2163,0.2168,0.2261,0.2198,0.22,0.2201,0.2312,0.2314,0.2316,0,0,0,0,0,0,0.1922,0.1929,0.1993,0.1971,0.1981,0.2033,0.2043,0.2052,0.2104,0.2113,0.2123,0.214,0.2158,0.2165,0.2223,0.2261,0.2201,0.2202,0.2309,0.2312,0.2315,0.2378,0,0,0,0,0,0,0.192,0.1928,0.1953,0.197,0.1982,0.2034,0.2042,0.2052,0.2107,0.2114,0.2157,0.2163,0.216,0.222,0.2225,0.2262,0.2204,0.2307,0.2311,0.2314,0.2374,0.2383,0.2391,0,0,0,0,0,0.1916,0.1937,0.1954,0.1963,0.2008,0.2035,0.2044,0.2083,0.2109,0.2135,0.2173,0.2164,0.2246,0.2223,0.2228,0.2267,0.2305,0.231,0.2314,0.237,0.2381,0.2391,0,0,0,0,0,0,0.1915,0.1946,0.1965,0.1996,0.2028,0.2048,0.2083,0.2107,0.2157,0.2179,0.2187,0.2196,0.2259,0.2256,0.2231,0.2312,0.2275,0.228,0.2316,0.2327,0.2335,0.2345,0.2205,0,0,0,0,0,0.1925,0.1954,0.198,0.2011,0.203,0.2065,0.2092,0.2118,0.2153,0.2179,0.2209,0.2243,0.2272,0.2297,0.2317,0.2361,0.2369,0.239,0.2399,0.2406,0.2419,0.2464,0.2478,0.233,0.233,0.233,0,0,0.1934,0.1957,0.1976,0.2015,0.2046,0.2076,0.2086,0.2137,0.2176,0.2177,0.2255,0.2276,0.2291,0.2342,0.237,0.2352,0.2455,0.2412,0.2418,0.2427,0.247,0.2484,0.2497,0.2333,0.2333,0.2332,0,0,0.195,0.1989,0.2014,0.2043,0.2096,0.2115,0.2139,0.2185,0.2227,0.2285,0.2304,0.2355,0.2396,0.2419,0.2431,0.2501,0.2498,0.2512,0.2566,0.261,0.2622,0.2633,0.2668,0.2681,0.2517,0.2517,0.2517,0,0.1966,0.1995,0.2028,0.2057,0.2089,0.2137,0.217,0.2213,0.2276,0.2314,0.2322,0.2413,0.2429,0.2492,0.2522,0.2521,0.2545,0.2522,0.262,0.2631,0.2641,0.2675,0.2689,0.2521,0.252,0.252,0.252,0,0.1983,0.2025,0.2046,0.2098,0.2136,0.2177,0.223,0.229,0.2343,0.2378,0.2467,0.2498,0.2552,0.2566,0.2568,0.2653,0.2647,0.2624,0.2591,0.266,0.2691,0.2704,0.2526,0.2525,0.2524,0.2523,0,0,0.1964,0.2042,0.2055,0.2087,0.2164,0.2191,0.2273,0.2343,0.2408,0.2474,0.255,0.2611,0.2644,0.2662,0.268,0.2724,0.2818,0.2717,0.2718,0.2747,0.2924,0.2744,0.2741,0.2817,0.282,0.2822,0.2918,0,0.1972,0.2025,0.2069,0.2135,0.2165,0.224,0.2307,0.2385,0.246,0.2548,0.2603,0.2683,0.2675,0.2724,0.2767,0.2812,0.2857,0.2795,0.2857,0.2859,0.2686,0.2751,0.2831,0.2928,0.2931,0.2933,0.2934,0,0.1964,0.2005,0.2066,0.2154,0.2178,0.2235,0.2356,0.2426,0.2552,0.2614,0.2704,0.2754,0.2854,0.2829,0.2938,0.2905,0.2928,0.2947,0.295,0.2768,0.2703,0.2844,0.2959,0.2957,0.2955,0.2953,0.2952,0,0.1911,0.2,0.2051,0.2081,0.2189,0.2252,0.2326,0.2453,0.2529,0.268,0.2749,0.2853,0.293,0.298,0.3031,0.3005,0.3132,0.3088,0.2945,0.2933,0.3038,0.3025,0.3159,0.3159,0.3159,0.3159,0.3158,0,0.1875,0.1921,0.204,0.2066,0.2148,0.2238,0.2347,0.2442,0.2585,0.2666,0.2791,0.2863,0.2978,0.3055,0.3075,0.3053,0.3169,0.2968,0.2947,0.3063,0.3052,0.3048,0.3034,0.3162,0.3161,0.3161,0.316,0,0.1798,0.1876,0.1944,0.2074,0.2124,0.2189,0.2353,0.2419,0.2579,0.2695,0.2752,0.2912,0.3006,0.3089,0.3181,0.3091,0.3099,0.3061,0.3201,0.3185,0.2861,0.2849,0.2901,0.2895,0.289,0.2887,0.2883,0,0.1755,0.1785,0.1937,0.1982,0.2051,0.2164,0.2233,0.2402,0.2469,0.2691,0.2721,0.2889,0.2969,0.2956,0.3054,0.3077,0.3038,0.3017,0.2912,0.286,0.2837,0.2832,0.2827,0.2876,0.2875,0.2873,0.2872,0,0.1674,0.1753,0.1811,0.1909,0.1993,0.2065,0.218,0.2214,0.2397,0.2565,0.2632,0.2688,0.2785,0.2842,0.2886,0.2892,0.3013,0.2967,0.2975,0.2877,0.2831,0.2811,0.2811,0.2856,0.2858,0.286,0.2861,0,0.1624,0.1646,0.1739,0.1809,0.1903,0.1928,0.2007,0.2077,0.2169,0.2402,0.2421,0.2596,0.2755,0.2748,0.279,0.2785,0.2731,0.2623,0.2648,0.2667,0.2544,0.2448,0.2349,0,0,0,0,0,0.1559,0.1566,0.1623,0.1681,0.1765,0.1819,0.1945,0.2025,0.2201,0.2187,0.2298,0.2377,0.2443,0.2538,0.2485,0.2685,0.2741,0.261,0.2628,0.2766,0.2785,0.2659,0,0,0,0,0,0,0.151,0.1561,0.1577,0.1559,0.1571,0.164,0.1713,0.1833,0.1834,0.2028,0.2079,0.223,0.2334,0.2451,0.2439,0.2466,0.2427,0.2725,0.2719,0.2755,0.2772,0.2787,0.2665,0,0,0,0,0]},{"header":{"parameterUnit":"m.s-1","parameterCategory":2,"la1":30.2991,"la2":30.254,"lo1":-89.0895,"lo2":-89.0444,"dy":0.0017,"dx":0.0017,"nx":28,"ny":28,"refTime":"2025-11-06T03:00:00:Z","depth":"4","parameterNumber":3,"parameterNumberName":"V-component_of_CURRENTS"},"data":[0,0,0,0,0,0,0,0,0,0,0,0,0,0,0,0,0,0,0,0,0,0,0,0,0,0,0,0,0,0,0,0,0,0,0,0,0,0,0,0,0,0,0,0,0,0,0,0,0,0,0,0,0,0,0,0,0,0,0.0196,0.0195,0,0.0157,0.0156,0.0156,0.0133,0.0133,0.0133,0.0132,0.009,0.0089,0.0088,0,0,0,0,0,0,0,0,0,0,0,0,0,0.0209,0.0209,0.0196,0.0195,0.0195,0.0157,0.0156,0.0156,0.0133,0.0133,0.0132,0.0132,0.0091,0.0089,0.0088,0,0,0,0,0,0,0,0,0,0,0,0,0,0.0189,0.0209,0.0196,0.0179,0.0178,0.0157,0.0156,0.0155,0.0133,0.0133,0.0132,0.0132,0.0091,0.009,0.0088,0.0079,0,0,0.0083,0.0082,0,0,0,0,0,0,0,0,0.019,0.0189,0.0182,0.0181,0.0178,0.015,0.0145,0.013,0.0133,0.0149,0.0132,0.0132,0.0111,0.0107,0.0099,0.0077,0.0075,0.0083,0.0082,0.0081,0.0081,0,0,0,0,0,0,0,0.0192,0.019,0.018,0.0182,0.018,0.016,0.0157,0.0142,0.013,0.0148,0.0146,0.0143,0.0109,0.0101,0.0098,0.0075,0.0083,0.0081,0.008,0.008,0.0053,0.0053,0,0,0,0,0,0,0.02,0.0192,0.0181,0.0179,0.0185,0.016,0.0157,0.0159,0.013,0.0126,0.0143,0.0142,0.0104,0.01,0.0096,0.0106,0.0081,0.008,0.0079,0.0052,0.0053,0.0053,0,0,0,0,0,0,0.0201,0.02,0.0183,0.0184,0.0181,0.016,0.0162,0.0158,0.0154,0.0127,0.0122,0.0144,0.0103,0.0099,0.0092,0.0103,0.0079,0.0077,0.0052,0.0052,0.0053,0.0111,0,0,0,0,0,0,0.0202,0.0201,0.0206,0.0185,0.0181,0.018,0.0162,0.0157,0.0152,0.0151,0.0126,0.0122,0.0103,0.0094,0.009,0.0101,0.0076,0.0052,0.0052,0.0053,0.0109,0.0114,0.0118,0,0,0,0,0,0.0202,0.0212,0.0206,0.0205,0.0189,0.018,0.0177,0.016,0.0152,0.0156,0.0139,0.0123,0.0094,0.0093,0.0088,0.0099,0.0051,0.0052,0.0053,0.0107,0.0113,0.0117,0,0,0,0,0,0,0.0219,0.021,0.0203,0.021,0.0199,0.0177,0.0178,0.0166,0.0154,0.0155,0.0127,0.0122,0.0118,0.01,0.0099,0.0091,0.0069,0.0069,0.0112,0.0117,0.0122,0.0135,0.0075,0,0,0,0,0,0.0225,0.0232,0.0217,0.0223,0.022,0.02,0.0194,0.0185,0.0171,0.0166,0.0148,0.0129,0.0115,0.011,0.0093,0.0091,0.0059,0.0093,0.0098,0.0101,0.0108,0.0068,0.0069,0.0055,0.0055,0.0055,0,0,0.0233,0.0229,0.0232,0.0227,0.0217,0.0224,0.0197,0.0195,0.0203,0.0163,0.0168,0.0143,0.0117,0.0115,0.0112,0.0103,0.0087,0.0102,0.0106,0.011,0.0069,0.007,0.0071,0.0055,0.0055,0.0055,0,0,0.0255,0.0249,0.0264,0.0261,0.0254,0.0244,0.0247,0.023,0.0225,0.0222,0.0197,0.018,0.0159,0.0144,0.0134,0.0151,0.0109,0.0144,0.018,0.0142,0.0143,0.0143,0.01,0.0097,0.0149,0.0149,0.0149,0,0.0264,0.0282,0.0266,0.028,0.0287,0.0258,0.0279,0.0268,0.0251,0.0252,0.0233,0.0197,0.0174,0.0172,0.0178,0.0162,0.013,0.0166,0.0148,0.0147,0.0147,0.0103,0.0098,0.0152,0.0152,0.0151,0.0151,0,0.0297,0.0314,0.0323,0.0336,0.0339,0.0351,0.034,0.0339,0.0325,0.0311,0.03,0.0259,0.0241,0.0227,0.0209,0.0199,0.0174,0.0156,0.0137,0.0152,0.0105,0.0098,0.0156,0.0155,0.0154,0.0153,0,0,0.0316,0.0344,0.0347,0.0372,0.0374,0.0384,0.0397,0.0403,0.0417,0.0381,0.0389,0.0352,0.0322,0.0307,0.0274,0.0239,0.0204,0.0202,0.0199,0.0165,0.0113,0.0097,0.0088,0.0182,0.0181,0.0181,0.008,0,0.0349,0.0398,0.04,0.0448,0.0475,0.0463,0.0482,0.0481,0.0468,0.0464,0.0413,0.0405,0.0355,0.0348,0.0305,0.0232,0.0191,0.0233,0.01,0.0096,0.0084,0.0082,0.0179,0.0076,0.0074,0.0073,0.0072,0,0.0383,0.0415,0.0472,0.0519,0.053,0.0552,0.0583,0.0597,0.058,0.0569,0.0539,0.0493,0.0445,0.0396,0.0273,0.0301,0.0216,0.0149,0.0143,0.0105,0.0068,0.0057,0.006,0.0061,0.0062,0.0063,0.0064,0,0.0412,0.0466,0.0519,0.0534,0.0577,0.0604,0.0626,0.063,0.0659,0.0638,0.0644,0.0566,0.0535,0.0417,0.0278,0.0275,0.0129,0.0106,0.0007,0.0004,0.0023,0.0024,0.0014,0.0014,0.0015,0.0015,0.0015,0,0.0447,0.0491,0.0541,0.057,0.0642,0.0653,0.072,0.0725,0.0743,0.0778,0.0705,0.07,0.0539,0.0435,0.0298,0.0135,0.0141,0.0012,-0.0021,0.0049,0.0054,0.0018,0.002,0.0011,0.0012,0.0013,0.0013,0,0.0471,0.0501,0.057,0.0631,0.066,0.0712,0.0797,0.0841,0.0846,0.0885,0.0884,0.0801,0.0663,0.0488,0.0293,0.0172,0.0011,-0.005,0.0039,0.0012,-0.0096,-0.009,-0.0171,-0.0173,-0.0174,-0.0175,-0.0176,0,0.0487,0.0524,0.0618,0.0669,0.0704,0.0788,0.0849,0.0891,0.0939,0.0945,0.0961,0.085,0.0767,0.0485,0.0293,0.0022,-0.0018,-0.0108,-0.0106,-0.009,-0.0115,-0.0107,-0.01,-0.0177,-0.0178,-0.0178,-0.0178,0,0.0518,0.0551,0.061,0.0716,0.0794,0.0892,0.0975,0.1018,0.1059,0.1064,0.1024,0.0877,0.0718,0.0491,0.028,0.0086,-0.0054,-0.0121,-0.012,-0.0119,-0.0099,-0.012,-0.0112,-0.0182,-0.0182,-0.0181,-0.0181,0,0.0541,0.0585,0.0661,0.0758,0.0861,0.0958,0.1006,0.1058,0.1104,0.1097,0.1081,0.091,0.0811,0.0523,0.0331,0.0136,0.008,0.0009,0.0002,0.0004,0.008,0.0133,0.0093,0,0,0,0,0,0.0561,0.0611,0.0698,0.0802,0.0907,0.0972,0.1074,0.1111,0.1146,0.1127,0.1106,0.0957,0.0672,0.0556,0.0357,0.0293,0.0037,0.0051,-0.005,-0.0205,-0.02,-0.0143,0,0,0,0,0,0,0.0571,0.0651,0.0694,0.0824,0.0901,0.1022,0.1092,0.1119,0.1109,0.1108,0.0967,0.0893,0.0624,0.0784,0.0349,0.0291,0.0195,-0.0078,-0.0083,-0.0207,-0.0203,-0.0199,-0.0139,0,0,0,0,0]}]]